Regional Weather Roundup
Issued by NWS

Home | Current Version | Previous Version | Text Only | Print | Product List | Glossary Off
Versions: 1 2 3 4 5 6 7 8 9 10 11 12 13 14 15 16 17 18 19 20 21 22 23 24 25 26 27 28 29 30 31 32 33 34 35 36 37 38 39 40 41 42 43 44 45 46 47 48 49 50

000
ASUS43 KMPX 200010
RWRMN
WEATHER ROUNDUP FOR MINNESOTA
NATIONAL WEATHER SERVICE TWIN CITIES/CHANHASSEN MN
700 PM CDT WED JUL 19 2017


NOTE: "FAIR" INDICATES FEW OR NO CLOUDS BELOW 12,000 FEET WITH NO
SIGNIFICANT WEATHER AND/OR OBSTRUCTIONS TO VISIBILITY. N/A MEANS
CURRENT SKY AND/OR WEATHER CONDITIONS ARE NOT AVAILABLE.

MNZ060>063-068>070-200100-
   Twin Cities Metro

CITY           SKY/WX    TMP DP  RH WIND       PRES   REMARKS
TWIN CITIES    CLOUDY    71  65  81 S12       29.93R
6HR MIN TEMP:  67; 6HR MAX TEMP:  83; 6HR PCP:  0.43;

ST PAUL        CLOUDY    70  68  93 S8        29.92R
CRYSTAL        CLOUDY    72  63  73 S13       29.91R
BLAINE         PTSUNNY   73  64  73 S8        29.91R
LAKEVILLE      CLOUDY    68  68 100 S7        29.93S
EDEN PRAIRIE   CLOUDY    72  67  84 S8        29.92R
6HR MIN TEMP:  67; 6HR MAX TEMP:  83; 6HR PCP:  0.27;

SOUTH ST PAUL  CLOUDY    70  67  91 S8        29.92R
LAKE ELMO      FAIR      68  64  88 SW5       29.93R
$$
MNZ001>005-007-008-013>017-022>024-027-028-200100-
   Northwest Minnesota

CITY           SKY/WX    TMP DP  RH WIND       PRES   REMARKS
BEMIDJI        SUNNY     78  61  55 SW8       29.91S
HALLOCK        SUNNY     79  66  65 SW6       29.84S
ROSEAU         CLOUDY    77  66  69 SW14      29.86S
WARROAD        CLOUDY    75  64  69 SW8       29.86F
THIEF RVR FALL SUNNY     78  66  66 SW9       29.88F
CROOKSTON      SUNNY     81  66  61 SW8       29.87F
FOSSTON        SUNNY     79  63  57 SW10      29.90F
DETROIT LAKES  SUNNY     77  64  65 W5        29.94S
MOORHEAD       SUNNY     81  64  57 S5        29.89F
PARK RAPIDS    SUNNY     79  60  52 W8        29.93S
MAHNOMEN       FAIR      77  65  67 SW9       29.90F
$$
MNZ006-009>011-018-025>026-200100-
   North Central Minnesota

CITY           SKY/WX    TMP DP  RH WIND       PRES   REMARKS
BAUDETTE       CLOUDY    74  62  66 S5        29.86F
FLAG ISLAND    CLOUDY    72  64  78 S3        29.85S
INTL FALLS     CLOUDY    71  59  65 VRB5      29.89F
6HR MIN TEMP:  68; 6HR MAX TEMP:  75; 6HR PCP: TRACE;

WASKISH        PTSUNNY   75  63  64 CALM      29.88F
BIG FORK       SUNNY     77  61  57 S5        29.92F
LONGVILLE      SUNNY     75  55  50 S7        29.94R
GRAND RAPIDS   SUNNY     76  54  46 S7        29.95R
CRANE LAKE     LGT RAIN  70  66  88 CALM      29.94F
ORR            CLOUDY    73  61  64 CALM      29.91F
COOK           CLOUDY    72  64  78 CALM      29.94S
WALKER         FAIR      78  59  52 SW5       29.92S
$$
MNZ012-019>021-037-200100-
   Northeast Minnesota

CITY           SKY/WX    TMP DP  RH WIND       PRES   REMARKS
DULUTH         CLOUDY    75  61  61 SE6       29.94S
6HR MIN TEMP:  73; 6HR MAX TEMP:  77;

ELY            CLOUDY    73  57  56 CALM      29.95R
HIBBING        PTSUNNY   75  60  59 VRB5      29.94R
EVELETH        MOSUNNY   73  49  43 S6        29.96R
DULUTH HARBOR  CLOUDY    68  61  77 N5        29.93S
TWO HARBORS    CLOUDY    75  64  69 CALM      29.92F
GRAND MARAIS     N/A     61  53  75 E5        29.93F
G MARAIS ARPRT CLOUDY    64  54  68 E3        29.99F
$$
MNZ029>031-032-039>041-046>048-054>057-064-200100-
   West Central Minnesota

CITY           SKY/WX    TMP DP  RH WIND       PRES   REMARKS
FERGUS FALLS   SUNNY     79  66  65 SW5       29.91R
WHEATON        MOSUNNY   77  68  73 SE5       29.91R
MORRIS         PTSUNNY   75  68  78 CALM      29.91R
ALEXANDRIA     PTSUNNY   76  65  68 CALM      29.95R
ELBOW LAKE     PTSUNNY   75  66  74 CALM      29.93R
WADENA         SUNNY     77  64  65 CALM      29.93R
GLENWOOD       CLOUDY    75  64  69 CALM      29.94R
APPLETON       SUNNY     79  68  69 S5        29.89R
BENSON         CLOUDY    77  66  69 SW7       29.92R
ORTONVILLE     SUNNY     79  68  69 MISG      29.89S
MADISON        SUNNY     81  70  69 S10       29.89R
WILLMAR        FAIR      77  70  78 S3        29.92S
$$
MNZ033>034-036-042>043-049>051-058-059-200100-
   Central Minnesota

CITY           SKY/WX    TMP DP  RH WIND       PRES   REMARKS
ST CLOUD       CLOUDY    75  63  66 E7        29.92R
6HR MIN TEMP:  68; 6HR MAX TEMP:  78; 6HR PCP:  0.06;

SAUK CENTRE    MOCLDY    75  62  65 CALM      29.94R
PAYNESVILLE    CLOUDY    74  65  71 S5        29.92R
AITKIN         SUNNY     75  59  57 S7        29.92F
PINE RIVER     CLOUDY    75  61  60 CALM      29.96S
BRAINERD       SUNNY     75  60  59 S7        29.93S
STAPLES        SUNNY     75  63  64 SW5       29.94R
LONG PRAIRIE   PTSUNNY   73  61  64 CALM      29.95R
LITTLE FALLS   PTSUNNY   73  59  60 SE5       29.93R
LITCHFIELD     CLOUDY    73  68  83 SE5       29.93R
BUFFALO        CLOUDY    71  64  79 S6        29.94R
MAPLE LAKE     CLOUDY    72  66  81 S3        29.93R
HUTCHINSON     MOSUNNY   74  69  83 SE5       29.92F
$$
MNZ037-044-045-052-053-200100-
   East Central Minnesota

CITY           SKY/WX    TMP DP  RH WIND       PRES   REMARKS
PRINCETON      CLOUDY    75  63  64 CALM      29.94R
MORA           CLOUDY    73  59  60 SE5       29.94F
CAMBRIDGE      CLOUDY    77  61  57 SE6       29.92R
RUSH CITY      RAIN      75  60  60 SE6       29.93R
MOOSE LAKE     CLOUDY    77  59  53 S5        29.92S
HINCKLEY       FAIR      77  59  53 SE6       29.93S
CLOQUET        CLOUDY    77  55  47 S5        29.94S
MCGREGOR       CLOUDY    77  57  50 S7        29.94S
$$
MNZ071>073-080-081-089-090-097-098-200100-
   Southwest Minnesota

CITY           SKY/WX    TMP DP  RH WIND       PRES   REMARKS
MONTEVIDEO     SUNNY     79  68  69 S7        29.90R
GRANITE FALLS  SUNNY     79  70  75 SE9       29.90F
CANBY          SUNNY     79  69  72 CALM      29.90F
MARSHALL       CLOUDY    77  70  79 SE8       29.90R
REDWOOD FALLS  CLOUDY    76  67  73 SE7       29.90S
OLIVIA         MOSUNNY   73  68  83 SE9       29.89S
PIPESTONE      CLOUDY    79  70  73 SE5       29.91F
WINDOM         CLOUDY    75  66  73 SE6       29.91F
WORTHINGTON    CLOUDY    76  67  73 SE8       29.91
JACKSON        CLOUDY    73  68  83 CALM      29.92F
TRACY          CLOUDY    77  72  84 SE3       29.89F
SLAYTON        HVY RAIN  74  68  80 SE7       29.92F
$$
MNZ065>067-074>077-082>085-091>093-200100-
   South Central Minnesota

CITY           SKY/WX    TMP DP  RH WIND       PRES   REMARKS
MANKATO        CLOUDY    70  67  90 SE8       29.93S
NEW ULM        CLOUDY    73  66  78 SE9       29.91S
ST JAMES       CLOUDY    73  66  78 SE10      29.92S
FAIRMONT       MOSUNNY   75  68  78 SE8       29.94R
GLENCOE        CLOUDY    74  70  88 SE8       29.91S
FARIBAULT      CLOUDY    70  68  94 SE8       29.94F
OWATONNA       CLOUDY    70  66  88 SE10      29.94F
WASECA         CLOUDY    72  68  88 SE7       29.94F
ALBERT LEA     CLOUDY    70  68  94 E5        29.96R FOG
$$
MNZ078>079-086>088-094>096-200100-
   Southeast Minnesota

CITY           SKY/WX    TMP DP  RH WIND       PRES   REMARKS
ROCHESTER      CLOUDY    67  66  97 S8        29.97F
6HR MIN TEMP:  66; 6HR MAX TEMP:  82; 6HR PCP:  1.23;

RED WING       CLOUDY    72  64  78 SW7       29.91R
STANTON        CLOUDY    69  67  94 S5        29.93F
DODGE CENTER   CLOUDY    66  64  94 S3        29.97S
WINONA         CLOUDY    70  68  94 S7        29.87R THUNDER
AUSTIN         CLOUDY    66  66 100 SE3       29.97R
$$
ABBREVIATIONS USED IN REMARKS
   TC - TEMPERATURES IN CELSIUS
  WCI - WIND CHILL INDEX
   HX - HEAT INDEX
  VSB - VISIBILITY
$$




USA.gov is the U.S. government's official web portal to all federal, state and local government web resources and services.